Nuiqsut, AK

4:11 PM AKDT on July 24, 2017 (GMT -0800)
Nuiqsut

Weather History for PAQT - September, 2013

Change the Weather History Date:

Wednesday, September 4, 2013

  Actual Average (PAKU) Record (PAKU)
Temperature  
Mean Temperature 34 °F -  
Max Temperature 36 °F 42 °F 64 °F (2006)
Min Temperature 33 °F 33 °F 26 °F (1983)
Degree Days  
Heating Degree Days 30    
Moisture  
Dew Point 34 °F    
Average Humidity 98    
Maximum Humidity 100    
Minimum Humidity 92    
Precipitation  
Precipitation 0.00 in - - ()
Sea Level Pressure  
Sea Level Pressure 29.54 in    
Wind  
Wind Speed 11 mph (NNE)    
Max Wind Speed 14 mph    
Max Gust Speed 18 mph    
Visibility 6 miles    
Events Fog    
Averages and records for this station are not official NWS values.
T = Trace of Precipitation, MM = Missing Value Source: NWS Daily Summary

Daily Weather History Graph

Daily Weather History Graph

Search for Another Location

Airport or City:

Trip Planner

Search our weather history database for the weather conditions in past years. The results will help you decide how hot, cold, wet, or windy it might be!

Date:

Astronomy

Sep. 04, 2013 Rise Set
Actual Time 6:32 AM AKDT 9:30 PM AKDT
Civil Twilight 5:20 AM AKDT 10:41 PM AKDT
Nautical Twilight 3:07 AM AKDT 12:45 AM AKDT
Astronomical Twilight Sun does not set Sun does not set
Moon 6:03 AM AKDT (9/4) 8:26 PM AKDT (9/4)
Length of Visible Light 17h 21m
Length of Day
14h 57m
Waning Crescent, 0% of the Moon is Illuminated
Sep 4
Waning Crescent
Sep 5
New
Sep 12
First Quarter
Sep 19
Full
Sep 26
Last Quarter

Hourly Weather History & Observations

Time (AKDT) Temp. Windchill Dew Point Humidity Pressure Visibility Wind Dir Wind Speed Gust Speed Precip Events Conditions
12:50 AM 35.6 °F 27.5 °F 35.6 °F 100% 29.44 in 2.5 mi NE 11.5 mph - N/A   Overcast
12:53 AM 35.1 °F 25.9 °F 35.1 °F 100% 29.44 in 3.0 mi NNE 13.8 mph - N/A   Overcast
1:12 AM 33.8 °F 25.3 °F 33.8 °F 100% 29.44 in 2.5 mi NE 11.5 mph - N/A   Overcast
1:22 AM 33.8 °F 25.3 °F 33.8 °F 100% 29.44 in 3.0 mi NNE 11.5 mph - N/A   Overcast
1:53 AM 34.0 °F 25.5 °F 34.0 °F 100% 29.45 in 4.0 mi NE 11.5 mph - N/A   Overcast
2:46 AM 33.8 °F 25.3 °F 33.8 °F 100% 29.46 in 10.0 mi NE 11.5 mph - N/A   Overcast
2:53 AM 34.0 °F 25.5 °F 34.0 °F 100% 29.47 in 10.0 mi NE 11.5 mph - N/A   Overcast
3:25 AM 33.8 °F 25.3 °F 33.8 °F 100% 29.46 in 3.0 mi NNE 11.5 mph - N/A   Overcast
3:36 AM 33.8 °F 25.3 °F 33.8 °F 100% 29.46 in 2.5 mi NNE 11.5 mph - N/A   Overcast
3:53 AM 34.0 °F 25.5 °F 34.0 °F 100% 29.46 in 2.5 mi NNE 11.5 mph - N/A   Overcast
4:20 AM 33.8 °F 24.3 °F 33.8 °F 100% 29.46 in 4.0 mi NNE 13.8 mph - N/A   Overcast
4:45 AM 33.8 °F 24.8 °F 33.8 °F 100% 29.46 in 5.0 mi NNE 12.7 mph - N/A   Overcast
4:53 AM 34.0 °F 24.6 °F 34.0 °F 100% 29.46 in 5.0 mi NNE 13.8 mph 18.4 mph N/A   Overcast
5:51 AM 33.8 °F 24.8 °F 33.8 °F 100% 29.46 in 4.0 mi NNE 12.7 mph - N/A   Overcast
5:53 AM 34.0 °F 25.5 °F 34.0 °F 100% 29.47 in 4.0 mi NE 11.5 mph - N/A   Overcast
6:53 AM 34.0 °F 25.0 °F 34.0 °F 100% 29.47 in 4.0 mi NE 12.7 mph - N/A   Overcast
7:22 AM 33.8 °F 25.3 °F 33.8 °F 100% 29.47 in 2.5 mi NE 11.5 mph - N/A   Overcast
7:48 AM 33.8 °F 24.8 °F 33.8 °F 100% 29.47 in 3.0 mi NNE 12.7 mph - N/A   Overcast
7:53 AM 34.0 °F 26.0 °F 34.0 °F 100% 29.48 in 3.0 mi NE 10.4 mph - N/A   Overcast
8:19 AM 33.8 °F 24.3 °F 33.8 °F 100% 29.47 in 4.0 mi NNE 13.8 mph - N/A   Overcast
8:53 AM 34.0 °F 24.6 °F 34.0 °F 100% 29.49 in 5.0 mi NE 13.8 mph - N/A   Overcast
9:21 AM 33.8 °F 24.3 °F 33.8 °F 100% 29.48 in 2.5 mi NE 13.8 mph - N/A   Overcast
9:53 AM 34.0 °F 25.5 °F 34.0 °F 100% 29.49 in 2.5 mi NNE 11.5 mph - N/A   Overcast
10:49 AM 35.6 °F 27.1 °F 35.6 °F 100% 29.51 in 5.0 mi NE 12.7 mph - N/A   Overcast
10:53 AM 35.1 °F 27.9 °F 35.1 °F 100% 29.51 in 5.0 mi NNE 9.2 mph - N/A   Overcast
11:05 AM 35.6 °F 28.6 °F 35.6 °F 100% 29.51 in 2.0 mi NNE 9.2 mph - 0.00 in   Overcast
11:17 AM 35.6 °F 28.0 °F 35.6 °F 100% 29.51 in 3.0 mi NNE 10.4 mph - 0.00 in   Overcast
11:26 AM 35.6 °F 27.5 °F 35.6 °F 100% 29.51 in 2.0 mi NNE 11.5 mph - 0.00 in   Overcast
11:42 AM 35.6 °F 27.5 °F 35.6 °F 100% 29.52 in 7.0 mi NNE 11.5 mph - 0.00 in   Overcast
11:53 AM 35.1 °F 26.9 °F 35.1 °F 100% 29.52 in 10.0 mi NNE 11.5 mph - 0.00 in   Overcast
12:53 PM 36.0 °F 28.5 °F 35.1 °F 97% 29.54 in 7.0 mi NNE 10.4 mph - N/A   Overcast
1:31 PM 35.6 °F 28.0 °F 35.6 °F 100% 29.54 in 10.0 mi NNE 10.4 mph - N/A   Overcast
1:43 PM 35.6 °F 27.5 °F 33.8 °F 93% 29.54 in 10.0 mi NNE 11.5 mph - N/A   Overcast
1:51 PM 35.6 °F 28.6 °F 33.8 °F 93% 29.55 in 10.0 mi NNE 9.2 mph - N/A   Overcast
1:53 PM 36.0 °F 28.5 °F 34.0 °F 93% 29.55 in 10.0 mi NNE 10.4 mph - N/A   Overcast
2:53 PM 36.0 °F 29.0 °F 34.0 °F 93% 29.57 in 4.0 mi NNE 9.2 mph - 0.00 in   Overcast
3:42 PM 35.6 °F 29.2 °F 33.8 °F 93% 29.59 in 0.2 mi NNE 8.1 mph - N/A Fog Fog
3:49 PM 35.6 °F 28.6 °F 33.8 °F 93% 29.59 in 4.0 mi NE 9.2 mph - N/A   Overcast
3:53 PM 36.0 °F 28.5 °F 34.0 °F 93% 29.59 in 7.0 mi NNE 10.4 mph - N/A   Overcast
4:17 PM 35.6 °F 27.5 °F 35.6 °F 100% 29.59 in 3.0 mi NNE 11.5 mph - N/A   Overcast
4:44 PM 35.6 °F 28.6 °F 33.8 °F 93% 29.59 in 10.0 mi NNE 9.2 mph - 0.00 in   Overcast
4:53 PM 36.0 °F 29.6 °F 34.0 °F 93% 29.60 in 7.0 mi NNE 8.1 mph - 0.00 in   Overcast
5:19 PM 35.6 °F 29.9 °F 33.8 °F 93% 29.59 in 6.0 mi North 6.9 mph - N/A   Overcast
5:31 PM 35.6 °F 27.5 °F 33.8 °F 93% 29.60 in 2.5 mi NNE 11.5 mph - 0.00 in   Overcast
5:39 PM 35.6 °F 29.2 °F 35.6 °F 100% 29.60 in 3.0 mi NNE 8.1 mph - 0.00 in   Overcast
5:46 PM 35.6 °F 29.2 °F 33.8 °F 93% 29.60 in 6.0 mi NNE 8.1 mph - 0.00 in   Overcast
5:53 PM 36.0 °F 29.0 °F 34.0 °F 93% 29.60 in 6.0 mi NNE 9.2 mph - 0.00 in   Overcast
5:57 PM 35.6 °F 28.0 °F 33.8 °F 93% 29.60 in 10.0 mi NNE 10.4 mph - N/A   Overcast
6:04 PM 35.6 °F 28.0 °F 33.8 °F 93% 29.60 in 9.0 mi NNE 10.4 mph - N/A   Overcast
6:53 PM 36.0 °F 28.0 °F 34.0 °F 93% 29.62 in 10.0 mi NNE 11.5 mph - N/A   Overcast
7:37 PM 35.6 °F 27.5 °F 33.8 °F 93% 29.63 in 6.0 mi NE 11.5 mph - N/A   Overcast
7:53 PM 35.1 °F 27.4 °F 33.1 °F 92% 29.64 in 10.0 mi NNE 10.4 mph - N/A   Overcast
8:53 PM 34.0 °F 25.5 °F 33.1 °F 96% 29.66 in 10.0 mi NE 11.5 mph - N/A   Overcast
9:53 PM 34.0 °F 28.8 °F 33.1 °F 96% 29.67 in 10.0 mi NE 5.8 mph - N/A   Overcast
10:53 PM 34.0 °F 28.0 °F 33.1 °F 96% 29.69 in 10.0 mi NE 6.9 mph - N/A   Overcast
11:11 PM 33.8 °F 28.6 °F 33.8 °F 100% 29.69 in 10.0 mi NE 5.8 mph - N/A   Overcast
11:18 PM 33.8 °F 27.7 °F 33.8 °F 100% 29.69 in 10.0 mi NE 6.9 mph - N/A   Overcast
11:51 PM 33.8 °F 26.4 °F 33.8 °F 100% 29.70 in 10.0 mi NE 9.2 mph - N/A   Overcast
11:53 PM 34.0 °F 27.2 °F 33.1 °F 96% 29.70 in 10.0 mi NE 8.1 mph - N/A   Overcast